TimeCST,TemperatureF,Dew PointF,Humidity,Sea Level PressureIn,VisibilityMPH,Wind Direction,Wind SpeedMPH,Gust SpeedMPH,PrecipitationIn,Events,Conditions,WindDirDegrees,DateUTC
12:11 AM,19.4,17.6,93,30.17,5.0,ENE,3.5,-,N/A,Snow,Light Snow,70,2012-12-28 06:11:00
12:28 AM,19.4,17.6,93,30.17,6.0,ENE,3.5,-,N/A,Snow,Light Snow,60,2012-12-28 06:28:00
12:32 AM,19.4,17.6,93,30.17,7.0,ENE,3.5,-,N/A,Snow,Light Snow,60,2012-12-28 06:32:00
12:55 AM,19.6,16.9,89,30.17,5.0,East,3.5,-,0.00,Snow,Light Snow,80,2012-12-28 06:55:00
1:55 AM,19.6,16.7,89,30.17,7.0,Calm,Calm,-,0.00,Snow,Light Snow,0,2012-12-28 07:55:00
2:55 AM,19.4,16.7,89,30.16,5.0,Calm,Calm,-,0.00,Snow,Light Snow,0,2012-12-28 08:55:00
3:55 AM,19.6,17.1,90,30.13,8.0,Calm,Calm,-,0.00,Snow,Light Snow,0,2012-12-28 09:55:00
4:39 AM,19.4,17.6,93,30.12,10.0,Calm,Calm,-,N/A,Snow,Light Snow,0,2012-12-28 10:39:00
4:55 AM,19.6,17.2,91,30.12,6.0,Calm,Calm,-,0.00,Snow,Light Snow,0,2012-12-28 10:55:00
5:03 AM,19.4,17.6,93,30.12,5.0,Calm,Calm,-,N/A,Snow,Light Snow,0,2012-12-28 11:03:00
5:07 AM,19.4,17.6,93,30.12,5.0,Calm,Calm,-,N/A,Snow,Light Snow,0,2012-12-28 11:07:00
5:36 AM,19.4,17.6,93,30.11,6.0,Calm,Calm,-,N/A,Snow,Light Snow,0,2012-12-28 11:36:00
5:55 AM,19.6,17.4,91,30.11,5.0,Calm,Calm,-,0.00,Snow,Light Snow,0,2012-12-28 11:55:00
5:56 AM,19.4,17.6,93,30.11,5.0,Calm,Calm,-,N/A,Snow,Light Snow,0,2012-12-28 11:56:00
5:59 AM,19.4,17.6,93,30.11,6.0,Calm,Calm,-,N/A,Snow,Light Snow,0,2012-12-28 11:59:00
6:55 AM,19.4,17.6,93,30.11,3.0,Variable,3.5,-,N/A,Snow,Light Snow,0,2012-12-28 12:55:00
7:23 AM,19.4,17.6,93,30.06,1.2,NE,3.5,-,N/A,Snow,Light Snow,50,2012-12-28 13:23:00
7:55 AM,19.4,17.6,93,30.11,1.2,Calm,Calm,-,N/A,Snow,Light Snow,0,2012-12-28 13:55:00
8:55 AM,19.4,17.6,93,30.10,1.2,ENE,4.6,-,N/A,Snow,Light Snow,60,2012-12-28 14:55:00
9:55 AM,21.2,17.6,86,30.10,1.8,ENE,5.8,-,N/A,Snow,Light Snow,70,2012-12-28 15:55:00
10:55 AM,23.0,19.4,86,30.08,1.8,ENE,4.6,-,N/A,Snow,Light Snow,70,2012-12-28 16:55:00
11:55 AM,23.0,19.4,86,30.05,1.8,ENE,4.6,-,N/A,Snow,Light Snow,60,2012-12-28 17:55:00
11:58 AM,23.0,19.4,86,30.05,2.0,ENE,4.6,-,N/A,Snow,Light Snow,70,2012-12-28 17:58:00
12:05 PM,23.0,19.4,86,30.05,1.8,ENE,4.6,-,N/A,Snow,Light Snow,60,2012-12-28 18:05:00
12:06 PM,23.0,19.4,86,30.05,1.8,ENE,4.6,-,N/A,Snow,Light Snow,70,2012-12-28 18:06:00
12:09 PM,23.0,21.2,93,30.05,1.5,NE,4.6,-,N/A,Snow,Light Snow,50,2012-12-28 18:09:00
12:15 PM,23.0,19.4,86,30.04,1.2,ENE,3.5,-,N/A,Snow,Light Snow,60,2012-12-28 18:15:00
12:25 PM,24.8,21.2,86,30.04,1.5,ENE,4.6,-,N/A,Snow,Light Snow,70,2012-12-28 18:25:00
12:28 PM,24.8,21.2,86,30.03,1.8,ENE,4.6,-,N/A,Snow,Light Snow,60,2012-12-28 18:28:00
12:34 PM,24.8,21.2,86,30.03,2.0,ENE,4.6,-,N/A,Snow,Light Snow,60,2012-12-28 18:34:00
12:44 PM,24.8,21.2,86,30.02,2.0,NE,3.5,-,N/A,Snow,Light Snow,40,2012-12-28 18:44:00
12:46 PM,24.8,21.2,86,30.02,2.5,NE,3.5,-,N/A,Snow,Light Snow,40,2012-12-28 18:46:00
12:50 PM,24.8,21.2,86,30.01,3.0,NNE,4.6,-,N/A,Snow,Light Snow,30,2012-12-28 18:50:00
12:55 PM,25.0,21.0,85,30.01,3.0,NNE,4.6,-,0.00,Snow,Light Snow,30,2012-12-28 18:55:00
12:59 PM,24.8,21.2,86,30.01,2.5,NNE,5.8,-,N/A,Snow,Light Snow,30,2012-12-28 18:59:00
1:14 PM,24.8,21.2,86,30.00,2.5,NE,4.6,-,N/A,Snow,Light Snow,40,2012-12-28 19:14:00
1:18 PM,24.8,21.2,86,30.00,3.0,NE,4.6,-,N/A,Snow,Light Snow,50,2012-12-28 19:18:00
1:28 PM,24.8,21.2,86,30.00,2.5,NE,4.6,-,N/A,Snow,Light Snow,50,2012-12-28 19:28:00
1:32 PM,24.8,21.2,86,30.00,2.5,NE,3.5,-,N/A,Snow,Light Snow,40,2012-12-28 19:32:00
1:36 PM,24.8,21.2,86,30.00,2.0,NE,4.6,-,N/A,Snow,Light Snow,50,2012-12-28 19:36:00
1:48 PM,24.8,21.2,86,30.00,2.5,NE,4.6,-,N/A,Snow,Light Snow,50,2012-12-28 19:48:00
1:55 PM,25.0,21.4,86,29.99,2.5,NE,5.8,-,0.00,Snow,Light Snow,50,2012-12-28 19:55:00
2:00 PM,24.8,21.2,86,29.99,2.0,NNE,4.6,-,N/A,Snow,Light Snow,30,2012-12-28 20:00:00
2:17 PM,24.8,21.2,86,29.99,2.5,NNE,4.6,-,N/A,Snow,Light Snow,30,2012-12-28 20:17:00
2:23 PM,24.8,21.2,86,29.99,3.0,NE,4.6,-,N/A,Snow,Light Snow,40,2012-12-28 20:23:00
2:25 PM,24.8,21.2,86,29.99,3.0,NE,4.6,-,N/A,Snow,Light Snow,40,2012-12-28 20:25:00
2:31 PM,24.8,21.2,86,29.99,3.0,NNE,5.8,-,N/A,Snow,Light Snow,30,2012-12-28 20:31:00
2:41 PM,24.8,21.2,86,29.99,3.0,NE,4.6,-,N/A,Snow,Light Snow,40,2012-12-28 20:41:00
2:55 PM,25.0,21.7,87,29.99,5.0,NNE,4.6,-,0.00,Snow,Light Snow,30,2012-12-28 20:55:00
3:31 PM,24.8,21.2,86,30.00,4.0,NNE,5.8,-,N/A,Snow,Light Snow,30,2012-12-28 21:31:00
3:41 PM,24.8,21.2,86,30.00,4.0,NE,4.6,-,N/A,Snow,Light Snow,40,2012-12-28 21:41:00
3:50 PM,24.8,21.2,86,30.00,6.0,NE,4.6,-,N/A,Snow,Light Snow,40,2012-12-28 21:50:00
3:55 PM,24.4,21.9,90,30.00,5.0,NE,4.6,-,0.00,Snow,Light Snow,40,2012-12-28 21:55:00
3:56 PM,24.8,21.2,86,30.00,5.0,NE,4.6,-,N/A,Snow,Light Snow,40,2012-12-28 21:56:00
3:57 PM,24.8,21.2,86,30.00,5.0,NE,4.6,-,N/A,Snow,Light Snow,40,2012-12-28 21:57:00
4:19 PM,24.8,21.2,86,30.00,4.0,NE,3.5,-,N/A,Snow,Light Snow,50,2012-12-28 22:19:00
4:29 PM,24.8,21.2,86,30.00,4.0,NE,3.5,-,N/A,Snow,Light Snow,50,2012-12-28 22:29:00
4:31 PM,24.8,21.2,86,30.00,4.0,NE,3.5,-,N/A,Snow,Light Snow,50,2012-12-28 22:31:00
4:55 PM,23.7,21.6,91,30.00,4.0,NE,3.5,-,0.00,Snow,Light Snow,50,2012-12-28 22:55:00
4:59 PM,24.8,21.2,86,30.00,5.0,NE,3.5,-,N/A,Snow,Light Snow,50,2012-12-28 22:59:00
5:03 PM,24.8,21.2,86,30.00,5.0,NE,3.5,-,N/A,Snow,Light Snow,50,2012-12-28 23:03:00
5:55 PM,23.2,21.2,92,30.00,7.0,Calm,Calm,-,0.00,Snow,Light Snow,0,2012-12-28 23:55:00
6:02 PM,23.0,21.2,93,30.00,8.0,Calm,Calm,-,N/A,Snow,Light Snow,0,2012-12-29 00:02:00
6:11 PM,23.0,21.2,93,30.00,8.0,Calm,Calm,-,N/A,Snow,Light Snow,0,2012-12-29 00:11:00
6:19 PM,23.0,21.2,93,30.00,9.0,Calm,Calm,-,N/A,Snow,Light Snow,0,2012-12-29 00:19:00
6:27 PM,23.0,21.2,93,30.00,9.0,Calm,Calm,-,N/A,Snow,Light Snow,0,2012-12-29 00:27:00
6:30 PM,21.2,19.4,93,30.00,8.0,Calm,Calm,-,N/A,Snow,Light Snow,0,2012-12-29 00:30:00
6:35 PM,21.2,19.4,93,30.00,8.0,Calm,Calm,-,N/A,Snow,Light Snow,0,2012-12-29 00:35:00
6:39 PM,21.2,19.4,93,30.00,7.0,NNW,3.5,-,N/A,Snow,Light Snow,340,2012-12-29 00:39:00
6:40 PM,21.2,19.4,93,30.00,7.0,Calm,Calm,-,N/A,Snow,Light Snow,0,2012-12-29 00:40:00
6:42 PM,21.2,19.4,93,30.00,7.0,Calm,Calm,-,N/A,Snow,Light Snow,0,2012-12-29 00:42:00
6:47 PM,21.2,19.4,93,30.00,7.0,Calm,Calm,-,N/A,Snow,Light Snow,0,2012-12-29 00:47:00
6:55 PM,21.4,19.9,94,30.00,8.0,Calm,Calm,-,0.00,Snow,Light Snow,0,2012-12-29 00:55:00
7:14 PM,21.2,19.4,93,30.01,8.0,Calm,Calm,-,N/A,Snow,Light Snow,0,2012-12-29 01:14:00
7:22 PM,21.2,19.4,93,30.01,8.0,Calm,Calm,-,N/A,Snow,Light Snow,0,2012-12-29 01:22:00
7:27 PM,21.2,19.4,93,30.01,8.0,Calm,Calm,-,N/A,Snow,Light Snow,0,2012-12-29 01:27:00
7:42 PM,21.2,19.4,93,30.01,8.0,Calm,Calm,-,N/A,Snow,Light Snow,0,2012-12-29 01:42:00
7:55 PM,20.5,18.9,93,30.01,6.0,Calm,Calm,-,0.00,Snow,Light Snow,0,2012-12-29 01:55:00
7:57 PM,21.2,19.4,93,30.00,6.0,Calm,Calm,-,N/A,Snow,Light Snow,0,2012-12-29 01:57:00
8:17 PM,19.4,19.4,100,30.00,8.0,Calm,Calm,-,N/A,Snow,Light Snow,0,2012-12-29 02:17:00
8:55 PM,20.3,18.7,93,29.99,10.0,Calm,Calm,-,0.00,Snow,Light Snow,0,2012-12-29 02:55:00
8:59 PM,21.2,19.4,93,29.99,10.0,Calm,Calm,-,N/A,Snow,Light Snow,0,2012-12-29 02:59:00
9:01 PM,21.2,19.4,93,29.99,10.0,Calm,Calm,-,N/A,Snow,Light Snow,0,2012-12-29 03:01:00
9:54 PM,21.2,19.4,93,29.98,10.0,Calm,Calm,-,N/A,,Overcast,0,2012-12-29 03:54:00
9:55 PM,21.6,19.8,93,29.98,10.0,Calm,Calm,-,0.00,,Overcast,0,2012-12-29 03:55:00
10:55 PM,22.1,19.9,91,29.97,10.0,West,3.5,-,N/A,,Overcast,270,2012-12-29 04:55:00
11:55 PM,21.7,19.9,93,29.96,10.0,WNW,4.6,-,N/A,,Overcast,300,2012-12-29 05:55:00
11:57 PM,21.2,19.4,93,29.96,10.0,WNW,4.6,-,N/A,,Overcast,300,2012-12-29 05:57:00